This is the latest recevied weather packets stored in our database for station/object VK2BLR. If no packets are shown the sender has not sent any weather packets the latest 10 day(s).
| Time | Temp. | Humidity | Pressure | Rain* | Wind** | Luminosity | Snow |
|---|---|---|---|---|---|---|---|
| 1788155490 | 22.78° C | 35% | 1026 hPa | 0 mm | - | - | - |
| 1788154590 | 22.78° C | 36% | 1026 hPa | 0 mm | - | - | - |
| 1788153692 | 22.78° C | 36% | 1026.1 hPa | 0 mm | - | - | - |
| 1788152791 | 23.33° C | 33% | 1026.1 hPa | 0 mm | - | - | - |
| 1788151890 | 23.89° C | 33% | 1026 hPa | 0 mm | - | - | - |
| 1788150991 | 23.89° C | 33% | 1026.2 hPa | 0 mm | - | - | - |
| 1788150091 | 23.89° C | 35% | 1026.1 hPa | 0 mm | - | - | - |
| 1788149192 | 23.89° C | 34% | 1026.2 hPa | 0 mm | - | - | - |
| 1788148291 | 23.89° C | 33% | 1026.2 hPa | 0 mm | - | - | - |
| 1788147391 | 23.89° C | 34% | 1026.3 hPa | 0 mm | - | - | - |
| 1788146491 | 24.44° C | 36% | 1026.4 hPa | 0 mm | - | - | - |
| 1788145592 | 24.44° C | 38% | 1026.6 hPa | 0 mm | - | - | - |
| 1788144690 | 23.89° C | 35% | 1027 hPa | 0 mm | - | - | - |
| 1788143791 | 23.89° C | 36% | 1027.3 hPa | 0 mm | - | - | - |
| 1788142891 | 23.89° C | 38% | 1027.4 hPa | 0 mm | - | - | - |
| 1788141990 | 23.89° C | 40% | 1027.5 hPa | 0 mm | - | - | - |
| 1788141092 | 23.89° C | 40% | 1027.8 hPa | 0 mm | - | - | - |
| 1788140192 | 23.89° C | 41% | 1027.9 hPa | 0 mm | - | - | - |
| 1788139291 | 23.33° C | 40% | 1028.1 hPa | 0 mm | - | - | - |
| 1788138390 | 23.33° C | 40% | 1028.2 hPa | 0 mm | - | - | - |
| 1788137492 | 23.89° C | 41% | 1028.2 hPa | 0 mm | - | - | - |
| 1788136592 | 23.33° C | 40% | 1028.2 hPa | 0 mm | - | - | - |
| 1788135691 | 22.78° C | 40% | 1028.1 hPa | 0 mm | - | - | - |
| 1788134790 | 22.78° C | 40% | 1028.1 hPa | 0 mm | - | - | - |
| 1788133892 | 22.78° C | 40% | 1028 hPa | 0 mm | - | - | - |
* Rain latest hour (hover to see other rain measurements)
** Current wind speed in m/s (hover to see current wind gust speed)